Time,TemperatureF,DewpointF,PressureIn,WindDirection,WindDirectionDegrees,WindSpeedMPH,WindSpeedGustMPH,Humidity,HourlyPrecipIn,Conditions,Clouds,dailyrainin,SoftwareType,DateUTC
2013-01-15 00:07:00,60.1,60.0,30.12,NE,55,0.0,1.0,99,0.00,,,0.00,weatherlink.com 1.10,2013-01-15 05:07:00,
2013-01-15 00:22:00,60.4,60.0,30.13,NNW,345,2.0,8.0,98,0.00,,,0.00,weatherlink.com 1.10,2013-01-15 05:22:00,
2013-01-15 00:37:00,56.9,56.0,30.14,NNE,25,10.0,11.0,95,0.00,,,0.00,weatherlink.com 1.10,2013-01-15 05:37:00,
2013-01-15 00:52:00,55.1,54.0,30.15,North,359,5.0,9.0,96,0.00,,,0.00,weatherlink.com 1.10,2013-01-15 05:52:00,
2013-01-15 01:07:00,53.9,53.0,30.16,NE,37,6.0,9.0,96,0.00,,,0.00,weatherlink.com 1.10,2013-01-15 06:07:00,
2013-01-15 01:22:00,53.0,52.0,30.16,NNE,28,4.0,8.0,97,0.00,,,0.00,weatherlink.com 1.10,2013-01-15 06:22:00,
2013-01-15 01:37:00,52.4,51.0,30.17,NNE,23,5.0,11.0,96,0.00,,,0.00,weatherlink.com 1.10,2013-01-15 06:37:00,
2013-01-15 01:52:00,51.7,51.0,30.17,ENE,58,8.0,13.0,97,0.00,,,0.00,weatherlink.com 1.10,2013-01-15 06:52:00,
2013-01-15 02:07:00,51.2,50.0,30.18,North,8,9.0,11.0,96,0.00,,,0.00,weatherlink.com 1.10,2013-01-15 07:07:00,
2013-01-15 02:22:00,50.6,50.0,30.18,ENE,64,7.0,13.0,96,0.00,,,0.00,weatherlink.com 1.10,2013-01-15 07:22:00,
2013-01-15 02:38:00,50.1,49.0,30.18,ENE,63,3.0,11.0,97,0.00,,,0.00,weatherlink.com 1.10,2013-01-15 07:38:00,
2013-01-15 02:52:00,49.5,48.0,30.18,NE,49,6.0,13.0,96,0.00,,,0.00,weatherlink.com 1.10,2013-01-15 07:52:00,
2013-01-15 03:07:00,48.8,47.0,30.19,ENE,58,8.0,15.0,94,0.00,,,0.00,weatherlink.com 1.10,2013-01-15 08:07:00,
2013-01-15 03:22:00,48.2,47.0,30.19,ENE,78,6.0,12.0,95,0.00,,,0.00,weatherlink.com 1.10,2013-01-15 08:22:00,
2013-01-15 03:37:00,47.6,46.0,30.18,NE,54,2.0,10.0,95,0.00,,,0.00,weatherlink.com 1.10,2013-01-15 08:37:00,
2013-01-15 03:52:00,47.1,46.0,30.18,ENE,61,3.0,13.0,96,0.00,,,0.00,weatherlink.com 1.10,2013-01-15 08:52:00,
2013-01-15 04:08:00,46.8,46.0,30.17,ENE,77,3.0,9.0,96,0.00,,,0.00,weatherlink.com 1.10,2013-01-15 09:08:00,
2013-01-15 04:23:00,46.5,46.0,30.18,ENE,58,0.0,8.0,97,0.00,,,0.00,weatherlink.com 1.10,2013-01-15 09:23:00,
2013-01-15 04:38:00,46.1,45.0,30.17,NE,54,4.0,10.0,96,0.00,,,0.00,weatherlink.com 1.10,2013-01-15 09:38:00,
2013-01-15 04:53:00,45.7,45.0,30.16,East,81,5.0,10.0,97,0.00,,,0.00,weatherlink.com 1.10,2013-01-15 09:53:00,
2013-01-15 05:08:00,45.6,45.0,30.16,NNE,28,7.0,8.0,97,0.00,,,0.00,weatherlink.com 1.10,2013-01-15 10:08:00,
2013-01-15 05:23:00,45.3,45.0,30.16,ENE,70,3.0,6.0,97,0.00,,,0.00,weatherlink.com 1.10,2013-01-15 10:23:00,
2013-01-15 05:38:00,45.1,44.0,30.16,East,82,2.0,12.0,97,0.00,,,0.00,weatherlink.com 1.10,2013-01-15 10:38:00,
2013-01-15 05:53:00,45.0,44.0,30.16,ENE,75,3.0,11.0,97,0.00,,,0.00,weatherlink.com 1.10,2013-01-15 10:53:00,
2013-01-15 06:08:00,44.9,44.0,30.15,ENE,68,2.0,9.0,97,0.00,,,0.00,weatherlink.com 1.10,2013-01-15 11:08:00,
2013-01-15 06:23:00,44.9,44.0,30.15,ENE,72,8.0,8.0,97,0.00,,,0.00,weatherlink.com 1.10,2013-01-15 11:23:00,
2013-01-15 06:38:00,44.8,44.0,30.16,ENE,70,2.0,7.0,97,0.00,,,0.00,weatherlink.com 1.10,2013-01-15 11:38:00,
2013-01-15 06:53:00,44.7,44.0,30.15,ENE,72,7.0,9.0,97,0.00,,,0.00,weatherlink.com 1.10,2013-01-15 11:53:00,
2013-01-15 07:08:00,44.7,44.0,30.15,East,96,7.0,8.0,97,0.00,,,0.00,weatherlink.com 1.10,2013-01-15 12:08:00,
2013-01-15 07:23:00,44.7,44.0,30.16,NE,51,3.0,9.0,97,0.00,,,0.00,weatherlink.com 1.10,2013-01-15 12:23:00,
2013-01-15 07:38:00,44.7,44.0,30.16,ENE,77,3.0,8.0,97,0.00,,,0.00,weatherlink.com 1.10,2013-01-15 12:38:00,
2013-01-15 07:53:00,44.7,44.0,30.18,NE,47,0.0,5.0,98,0.00,,,0.00,weatherlink.com 1.10,2013-01-15 12:53:00,
2013-01-15 08:08:00,44.8,44.0,30.18,East,84,0.0,4.0,98,0.00,,,0.00,weatherlink.com 1.10,2013-01-15 13:08:00,
2013-01-15 08:23:00,44.7,44.0,30.19,ENE,72,1.0,5.0,98,0.00,,,0.00,weatherlink.com 1.10,2013-01-15 13:23:00,
2013-01-15 08:38:00,44.5,44.0,30.20,NNE,19,1.0,4.0,98,0.00,,,0.00,weatherlink.com 1.10,2013-01-15 13:38:00,
2013-01-15 08:53:00,44.6,44.0,30.21,ENE,65,2.0,5.0,98,0.00,,,0.00,weatherlink.com 1.10,2013-01-15 13:53:00,
2013-01-15 09:08:00,44.6,44.0,30.21,ENE,61,0.0,3.0,98,0.00,,,0.00,weatherlink.com 1.10,2013-01-15 14:08:00,
2013-01-15 09:23:00,44.8,44.0,30.22,NNE,26,1.0,4.0,98,0.00,,,0.00,weatherlink.com 1.10,2013-01-15 14:23:00,
2013-01-15 09:38:00,44.6,44.0,30.22,NE,46,2.0,5.0,98,0.00,,,0.00,weatherlink.com 1.10,2013-01-15 14:38:00,
2013-01-15 09:53:00,44.7,44.0,30.22,NE,39,4.0,5.0,98,0.00,,,0.00,weatherlink.com 1.10,2013-01-15 14:53:00,
2013-01-15 10:08:00,44.7,44.0,30.23,NE,44,0.0,4.0,98,0.00,,,0.00,weatherlink.com 1.10,2013-01-15 15:08:00,
2013-01-15 10:23:00,44.6,44.0,30.23,NE,41,2.0,8.0,98,0.00,,,0.00,weatherlink.com 1.10,2013-01-15 15:23:00,
2013-01-15 10:38:00,44.7,44.0,30.22,ENE,58,4.0,9.0,98,0.00,,,0.00,weatherlink.com 1.10,2013-01-15 15:38:00,
2013-01-15 10:53:00,44.6,44.0,30.22,North,358,2.0,8.0,98,0.00,,,0.00,weatherlink.com 1.10,2013-01-15 15:53:00,
2013-01-15 11:08:00,44.6,44.0,30.22,NE,36,3.0,9.0,98,0.00,,,0.00,weatherlink.com 1.10,2013-01-15 16:08:00,
2013-01-15 11:23:00,44.7,44.0,30.21,NE,50,3.0,8.0,98,0.00,,,0.00,weatherlink.com 1.10,2013-01-15 16:23:00,
2013-01-15 11:38:00,45.2,45.0,30.21,ENE,59,3.0,6.0,99,0.00,,,0.00,weatherlink.com 1.10,2013-01-15 16:38:00,
2013-01-15 11:53:00,45.1,45.0,30.20,North,351,5.0,9.0,98,0.00,,,0.00,weatherlink.com 1.10,2013-01-15 16:53:00,
2013-01-15 12:08:00,45.2,45.0,30.20,NNE,33,4.0,6.0,98,0.00,,,0.00,weatherlink.com 1.10,2013-01-15 17:08:00,
2013-01-15 12:23:00,45.3,45.0,30.20,NE,34,5.0,6.0,98,0.00,,,0.00,weatherlink.com 1.10,2013-01-15 17:23:00,
2013-01-15 12:38:00,45.4,45.0,30.19,NE,51,2.0,8.0,98,0.00,,,0.00,weatherlink.com 1.10,2013-01-15 17:38:00,
2013-01-15 12:53:00,45.6,45.0,30.18,East,81,4.0,11.0,98,0.00,,,0.00,weatherlink.com 1.10,2013-01-15 17:53:00,
2013-01-15 13:08:00,45.8,45.0,30.18,SE,131,3.0,6.0,97,0.00,,,0.00,weatherlink.com 1.10,2013-01-15 18:08:00,
2013-01-15 13:23:00,45.9,45.0,30.17,NE,51,3.0,9.0,97,0.00,,,0.00,weatherlink.com 1.10,2013-01-15 18:23:00,
2013-01-15 13:38:00,46.0,45.0,30.16,NE,53,4.0,6.0,97,0.00,,,0.00,weatherlink.com 1.10,2013-01-15 18:38:00,
2013-01-15 13:53:00,45.9,45.0,30.16,NE,50,2.0,9.0,97,0.00,,,0.00,weatherlink.com 1.10,2013-01-15 18:53:00,
2013-01-15 14:08:00,46.1,45.0,30.16,ENE,68,2.0,9.0,97,0.00,,,0.00,weatherlink.com 1.10,2013-01-15 19:08:00,
2013-01-15 14:23:00,46.2,45.0,30.16,ENE,58,3.0,7.0,97,0.00,,,0.00,weatherlink.com 1.10,2013-01-15 19:23:00,
2013-01-15 14:38:00,46.0,45.0,30.16,NE,51,6.0,6.0,96,0.00,,,0.00,weatherlink.com 1.10,2013-01-15 19:38:00,
2013-01-15 14:53:00,45.6,45.0,30.17,NE,53,3.0,9.0,96,0.00,,,0.00,weatherlink.com 1.10,2013-01-15 19:53:00,
2013-01-15 15:08:00,45.5,45.0,30.16,East,82,5.0,8.0,96,0.00,,,0.00,weatherlink.com 1.10,2013-01-15 20:08:00,
2013-01-15 15:23:00,45.5,45.0,30.16,East,89,2.0,-999.0,97,-99.99,,,0.00,weatherlink.com 1.10,2013-01-15 20:23:00,
2013-01-15 15:38:00,45.7,45.0,30.16,East,95,3.0,8.0,97,0.00,,,0.00,weatherlink.com 1.10,2013-01-15 20:38:00,
2013-01-15 15:54:00,45.9,45.0,30.16,NNE,32,4.0,5.0,96,0.00,,,0.00,weatherlink.com 1.10,2013-01-15 20:54:00,
2013-01-15 16:08:00,45.9,45.0,30.16,ENE,63,1.0,4.0,96,0.00,,,0.00,weatherlink.com 1.10,2013-01-15 21:08:00,
2013-01-15 16:24:00,45.7,45.0,30.17,ENE,66,2.0,6.0,96,0.00,,,0.00,weatherlink.com 1.10,2013-01-15 21:24:00,
2013-01-15 16:39:00,45.6,45.0,30.17,ESE,102,4.0,5.0,97,0.00,,,0.00,weatherlink.com 1.10,2013-01-15 21:39:00,
2013-01-15 16:54:00,45.4,45.0,30.17,East,97,0.0,6.0,97,0.00,,,0.00,weatherlink.com 1.10,2013-01-15 21:54:00,
2013-01-15 17:09:00,45.3,45.0,30.17,NE,54,2.0,4.0,97,0.00,,,0.00,weatherlink.com 1.10,2013-01-15 22:09:00,
2013-01-15 17:24:00,45.0,44.0,30.17,NE,51,0.0,5.0,97,0.00,,,0.00,weatherlink.com 1.10,2013-01-15 22:24:00,
2013-01-15 17:39:00,45.0,45.0,30.17,NE,54,4.0,5.0,98,0.00,,,0.00,weatherlink.com 1.10,2013-01-15 22:39:00,
2013-01-15 17:54:00,44.7,44.0,30.17,ENE,75,2.0,5.0,98,0.00,,,0.00,weatherlink.com 1.10,2013-01-15 22:54:00,
2013-01-15 18:09:00,44.5,44.0,30.17,NNE,32,4.0,6.0,98,0.00,,,0.00,weatherlink.com 1.10,2013-01-15 23:09:00,
2013-01-15 18:24:00,44.4,44.0,30.16,East,98,2.0,5.0,98,0.00,,,0.00,weatherlink.com 1.10,2013-01-15 23:24:00,
2013-01-15 18:39:00,44.3,44.0,30.17,East,85,4.0,6.0,98,0.00,,,0.00,weatherlink.com 1.10,2013-01-15 23:39:00,
2013-01-15 18:54:00,44.3,44.0,30.16,ENE,64,1.0,5.0,98,0.00,,,0.00,weatherlink.com 1.10,2013-01-15 23:54:00,
2013-01-15 19:09:00,44.4,44.0,30.17,NE,46,1.0,4.0,98,0.00,,,0.00,weatherlink.com 1.10,2013-01-16 00:09:00,
2013-01-15 19:24:00,44.4,44.0,30.17,ESE,114,1.0,6.0,99,0.00,,,0.00,weatherlink.com 1.10,2013-01-16 00:24:00,
2013-01-15 19:39:00,44.4,44.0,30.15,ENE,68,2.0,6.0,99,0.00,,,0.00,weatherlink.com 1.10,2013-01-16 00:39:00,
2013-01-15 19:54:00,44.4,44.0,30.14,East,84,3.0,7.0,99,0.00,,,0.00,weatherlink.com 1.10,2013-01-16 00:54:00,
2013-01-15 20:09:00,44.5,44.0,30.14,ENE,78,0.0,4.0,99,0.00,,,0.00,weatherlink.com 1.10,2013-01-16 01:09:00,
2013-01-15 20:24:00,44.6,44.0,30.13,East,99,2.0,2.0,99,0.00,,,0.00,weatherlink.com 1.10,2013-01-16 01:24:00,
2013-01-15 20:39:00,44.6,44.0,30.13,ENE,77,2.0,3.0,99,0.00,,,0.00,weatherlink.com 1.10,2013-01-16 01:39:00,
2013-01-15 20:54:00,44.7,45.0,30.13,East,99,1.0,3.0,99,0.00,,,0.00,weatherlink.com 1.10,2013-01-16 01:54:00,
2013-01-15 21:09:00,44.9,45.0,30.12,NE,41,2.0,3.0,99,0.00,,,0.00,weatherlink.com 1.10,2013-01-16 02:09:00,
2013-01-15 21:24:00,44.9,45.0,30.12,NNE,19,0.0,1.0,99,0.01,,,0.01,weatherlink.com 1.10,2013-01-16 02:24:00,
2013-01-15 21:39:00,45.0,45.0,30.11,ENE,77,1.0,3.0,99,0.01,,,0.01,weatherlink.com 1.10,2013-01-16 02:39:00,
2013-01-15 21:54:00,45.1,45.0,30.11,ESE,105,1.0,3.0,99,0.01,,,0.01,weatherlink.com 1.10,2013-01-16 02:54:00,
2013-01-15 22:09:00,45.2,45.0,30.09,ENE,71,3.0,5.0,99,0.01,,,0.01,weatherlink.com 1.10,2013-01-16 03:09:00,
2013-01-15 22:24:00,45.3,45.0,30.08,ESE,108,4.0,5.0,99,0.00,,,0.01,weatherlink.com 1.10,2013-01-16 03:24:00,
2013-01-15 22:39:00,45.5,45.0,30.08,ESE,110,2.0,3.0,99,0.00,,,0.01,weatherlink.com 1.10,2013-01-16 03:39:00,
2013-01-15 22:54:00,45.7,46.0,30.07,East,79,0.0,2.0,99,0.00,,,0.01,weatherlink.com 1.10,2013-01-16 03:54:00,
2013-01-15 23:09:00,45.8,46.0,30.08,North,1,0.0,2.0,99,0.00,,,0.01,weatherlink.com 1.10,2013-01-16 04:09:00,
2013-01-15 23:24:00,45.9,46.0,30.08,North,1,0.0,1.0,99,0.00,,,0.01,weatherlink.com 1.10,2013-01-16 04:24:00,
2013-01-15 23:39:00,46.0,46.0,30.07,NNE,19,0.0,1.0,99,0.00,,,0.01,weatherlink.com 1.10,2013-01-16 04:39:00,
2013-01-15 23:54:00,46.1,46.0,30.07,SSE,148,0.0,1.0,99,0.00,,,0.01,weatherlink.com 1.10,2013-01-16 04:54:00,